SCP
0 0 0 0 0 0 0 0 0 0 0 0 0 0 0 0 0 0 0 0 0 0 0 0 0 0 0 1 1 1 1 0 0 0 0 0 0 0 0 0 0 0 0 0
0 0 0 0 0 0 0 0 0 0 0 0 0 0 0 0 0 0 0 0 0 0 0 0 0 0 0 1 1 1 1 1 0 0 0 0 0 0 0 0 0 0 0 0
0 0 0 0 0 0 0 0 0 0 0 0 0 0 0 0 0 0 1 1 1 0 0 0 0 0 0 0 0 0 0 0 0 0 0 0 0 0 0 0 0 0 0 0
0 0 0 0 0 0 0 0 0 0 0 0 0 0 0 0 0 0 0 1 1 1 1 0 0 0 0 0 0 0 0 0 0 0 0 0 0 0 0 0 0 0 0 0
0 0 0 0 0 0 0 0 0 0 0 0 0 0 0 0 0 0 0 0 1 1 1 0 0 0 0 0 0 0 0 0 0 0 0 0 0 0 0 0 0 0 0 0
0 0 0 0 0 0 0 0 0 0 0 0 0 0 0 0 0 0 0 0 0 0 0 0 0 0 0 0 0 0 0 0 0 0 0 0 0 0 0 0 0 0 0 0
0 0 0 0 0 0 0 0 0 0 0 0 0 0 0 0 0 0 0 0 0 0 0 0 0 0 0 0 0 0 0 0 1 1 1 0 0 0 0 0 0 0 0 0
0 0 0 0 0 0 0 0 0 0 0 0 0 0 0 0 0 0 0 0 0 0 0 0 0 0 0 0 1 0 0 1 1 1 1 0 0 0 0 0 0 0 0 0
0 0 0 0 0 0 0 0 0 0 0 0 0 0 0 0 1 1 1 0 0 0 0 0 0 0 0 0 1 1 1 1 1 1 1 0 0 0 0 0 0 0 0 0
0 0 0 0 0 0 0 0 0 0 0 0 0 0 1 1 0 0 0 0 0 0 0 0 0 0 0 0 0 1 1 1 1 1 1 0 0 0 0 0 0 0 0 0
0 0 0 0 0 0 0 0 0 0 0 0 0 0 0 0 0 0 0 0 0 0 0 0 0 0 0 0 0 0 0 0 0 0 0 0 0 0 0 0 0 0 0 0
0 0 0 0 0 0 0 0 0 0 0 0 0 0 0 0 0 0 0 0 0 0 0 0 0 0 0 0 0 0 0 0 0 0 0 0 0 0 0 0 0 0 0 0
0 0 0 0 0 0 0 0 0 0 0 0 0 0 0 0 0 0 0 0 0 0 0 0 0 0 0 0 0 0 0 0 0 0 0 0 0 0 0 0 0 0 0 0
0 0 0 0 0 0 0 0 0 0 0 0 0 0 0 0 0 0 0 0 0 0 0 0 0 0 0 0 0 0 0 0 0 0 0 0 0 0 0 0 0 0 0 0
0 0 0 0 0 0 0 0 0 0 0 0 0 0 0 0 0 0 0 0 0 0 0 0 0 0 0 0 0 0 0 0 0 0 0 0 0 0 0 0 0 0 0 0
0 0 0 0 0 0 0 0 0 0 0 0 1 1 0 0 0 0 0 0 0 0 0 0 0 0 0 0 0 0 0 0 0 0 0 0 0 0 0 0 0 0 0 0
0 0 0 0 0 0 0 0 0 0 0 1 1 1 1 0 0 0 0 0 0 0 0 0 0 0 0 0 0 0 0 0 0 0 0 0 0 0 0 0 0 0 0 0
0 0 0 0 0 0 0 0 0 0 0 1 1 1 1 0 0 0 0 0 0 0 0 0 0 0 0 0 0 0 0 0 0 0 0 0 0 0 0 0 0 0 0 0
0 0 0 0 0 0 0 0 0 0 1 1 1 1 0 0 0 0 0 0 0 0 0 0 0 0 0 0 0 0 0 0 0 0 0 0 0 0 0 0 0 0 0 0
0 0 0 0 0 0 0 0 0 0 0 0 0 0 0 0 0 0 0 0 0 0 0 0 0 0 0 0 0 0 0 0 0 0 0 0 0 0 0 0 0 0 0 0
0 0 0 0 0 0 0 0 0 0 0 0 0 0 0 0 0 0 0 0 0 0 0 0 0 0 0 0 0 0 0 0 0 0 0 0 0 0 0 0 0 0 0 0
0 0 0 0 0 0 0 0 0 0 0 0 0 0 0 0 0 0 0 0 0 0 0 0 0 0 0 0 0 0 0 0 0 0 0 0 0 0 0 0 0 0 0 0
0 0 0 0 0 0 0 0 0 0 0 0 0 0 0 0 0 0 0 0 0 0 0 0 0 0 0 0 0 0 0 0 0 0 0 0 0 0 0 0 0 0 0 0
0 0 0 0 0 0 0 0 0 0 0 0 0 0 0 0 0 0 0 0 0 0 0 0 0 0 0 0 0 0 0 0 0 0 0 0 0 0 0 0 0 0 0 0
0 0 0 0 0 0 0 0 0 0 0 0 0 0 0 0 0 0 0 0 0 0 0 0 0 0 0 0 0 0 0 0 0 0 0 0 0 0 0 0 0 0 0 0
0 0 0 0 0 0 0 0 0 0 0 0 0 0 0 0 0 0 0 0 0 0 0 0 0 0 0 0 0 0 0 0 0 0 0 0 0 0 0 0 0 0 0 0
0 0 0 0 0 0 0 0 0 0 0 0 0 0 0 0 0 0 0 0 0 0 0 0 0 0 0 0 0 0 0 0 0 0 0 0 0 0 0 0 0 0 0 0
Wind_Speed
5 5 4 5 7 7 6 8 7 7 7 8 7 7 6 5 6 8 9 10 12 12 11 11 10 9 9 9 8 8 8 7 7 6 5 5 5 4 4 4 5 4 4 3
2 4 4 5 7 8 8 7 7 6 7 7 5 4 4 5 6 8 9 11 11 12 12 12 12 11 10 9 9 9 9 8 6 6 6 5 5 5 4 4 4 4 4 4
2 3 2 5 7 8 7 7 8 9 9 5 3 5 7 8 8 9 10 10 11 12 13 13 13 12 12 11 9 9 9 8 7 7 6 6 6 5 5 4 4 4 4 4
2 1 4 8 4 5 6 7 7 6 6 7 7 6 5 7 9 8 9 10 10 10 11 10 10 10 10 10 10 10 9 8 7 7 7 6 6 6 5 4 4 4 4 4
3 3 5 7 3 4 4 5 5 6 6 5 5 2 2 4 7 9 10 9 9 9 10 10 11 11 10 10 9 9 9 9 8 8 8 7 7 6 5 4 4 4 3 4
4 3 6 7 4 1 3 3 4 5 6 6 5 3 5 5 6 6 6 6 7 7 7 9 10 10 11 10 10 10 10 9 8 8 8 8 7 6 4 4 4 4 3 3
4 4 7 7 4 2 3 6 4 3 5 6 6 7 5 4 4 6 6 6 7 8 8 8 9 10 10 10 10 10 8 7 7 7 8 7 6 4 5 4 4 4 3 2
4 4 8 4 1 4 5 3 2 1 3 5 5 4 3 4 5 6 6 6 8 8 7 7 9 10 10 9 9 7 7 7 7 7 7 6 6 5 5 5 5 4 3 1
7 7 5 3 4 4 3 2 1 1 1 5 5 4 4 4 5 5 6 7 7 8 7 6 7 10 10 8 7 8 8 7 6 7 5 6 7 6 5 4 4 3 3 2
2 4 3 3 1 1 0 1 2 2 4 5 6 5 5 5 4 5 5 6 6 8 8 6 6 7 8 7 8 9 9 7 6 6 5 5 4 5 5 5 4 4 3 3
2 3 3 2 1 1 1 2 2 2 2 5 7 6 5 5 5 5 5 5 6 8 8 7 7 6 6 7 9 10 9 7 6 5 5 5 4 3 4 4 6 6 5 4
5 5 3 5 4 1 1 1 2 3 3 3 5 6 5 5 5 5 5 5 6 6 7 6 7 6 6 7 9 10 8 7 6 5 5 5 5 3 4 3 4 6 6 5
5 3 4 5 4 2 2 2 2 4 6 5 4 5 5 5 5 5 6 6 7 6 6 6 7 6 5 6 8 9 8 7 5 5 5 5 5 5 3 3 5 3 3 4
3 2 2 4 3 2 2 3 3 4 4 6 6 5 5 5 5 6 6 6 6 7 6 6 7 6 5 6 8 7 7 7 6 5 5 5 5 4 4 5 3 1 2 2
3 3 5 3 1 1 2 5 6 5 5 5 5 6 6 7 6 5 4 5 6 7 6 6 7 5 5 6 8 7 6 5 5 5 4 5 4 4 4 4 3 2 1 2
1 1 3 4 3 2 3 5 6 5 5 5 5 5 5 6 6 5 4 5 7 7 6 6 6 5 5 7 7 6 5 8 7 5 5 5 4 4 4 4 3 2 2 1
3 3 3 4 5 4 4 4 5 5 5 6 6 6 6 7 6 5 4 4 5 5 5 6 6 5 6 7 7 5 5 6 8 6 5 5 4 4 4 4 3 2 1 2
6 6 7 7 6 5 4 4 5 5 6 6 7 7 7 7 7 5 5 5 7 6 4 4 5 6 6 6 6 5 5 5 5 5 4 4 4 4 4 4 4 3 2 2
4 5 4 4 5 5 5 5 5 5 6 7 8 7 6 6 6 6 6 7 7 5 2 3 8 7 6 6 7 5 6 6 5 4 4 5 5 4 4 4 3 3 3 2
4 4 5 4 4 5 5 6 6 6 5 7 8 8 7 6 6 7 8 6 3 3 3 5 6 6 5 6 8 5 6 6 6 5 4 4 4 4 3 3 3 3 3 2
4 5 5 5 4 5 6 7 7 7 6 7 8 8 8 6 6 7 7 5 2 3 6 8 6 4 4 6 7 5 5 5 5 5 5 4 4 4 3 3 3 3 3 3
4 4 5 5 5 5 4 5 7 7 7 7 7 8 9 8 7 6 4 4 4 6 5 4 4 7 8 8 5 5 5 5 5 4 4 4 4 4 3 3 3 3 2 2
3 4 5 5 6 6 5 5 6 8 8 8 8 8 8 6 5 7 5 2 3 8 6 4 8 11 11 7 5 5 6 5 5 4 4 4 4 4 3 3 3 3 2 2
3 3 4 4 6 7 6 5 5 6 7 6 6 6 7 6 4 3 4 7 8 9 6 8 12 12 10 5 5 5 5 5 5 4 4 4 4 4 3 3 3 2 2 2
4 4 5 6 6 5 6 6 7 7 7 6 6 5 4 4 5 4 5 6 9 9 6 9 12 11 7 5 5 5 5 5 5 5 5 4 4 4 3 3 3 3 2 2
4 4 4 4 4 5 5 6 5 5 6 7 5 4 5 5 6 5 5 6 8 8 6 5 6 7 5 5 5 5 5 5 5 5 5 4 4 4 3 3 4 3 2 2
4 3 4 4 3 4 5 5 6 5 5 7 7 5 5 6 6 6 6 6 5 5 5 5 5 5 5 5 5 5 5 5 4 4 4 4 4 3 3 4 3 3 2 2
Wind_Direction
220 227 198 217 223 204 192 192 196 224 230 245 233 217 203 193 176 169 176 182 182 182 181 177 178 177 173 171 167 162 159 165 175 173 169 159 154 152 146 138 142 142 131 125
267 250 234 246 237 219 212 204 208 224 249 241 228 202 192 194 185 178 183 187 186 185 181 180 180 178 173 172 169 162 164 172 172 164 164 161 159 151 143 139 134 131 134 136
252 291 358 260 228 211 210 206 192 216 233 215 195 193 194 190 185 187 187 185 185 187 185 184 182 178 177 175 167 164 169 170 168 165 165 168 159 149 150 151 139 134 138 139
186 51 236 247 239 197 203 227 209 205 213 195 198 203 198 189 183 188 187 187 186 184 182 182 177 172 169 164 164 166 169 170 171 166 169 166 156 158 160 153 150 151 153 154
155 197 269 285 261 175 181 247 219 203 220 207 186 137 288 218 191 188 186 184 184 181 173 168 169 167 159 162 165 167 174 177 176 171 168 164 164 168 167 153 155 160 161 162
150 174 231 249 269 231 108 264 254 196 203 193 152 156 241 221 187 183 176 168 165 160 152 158 166 160 157 164 166 177 183 180 174 171 168 171 176 171 160 154 162 159 158 168
173 202 250 253 262 73 137 242 270 210 188 175 181 197 205 182 170 166 159 157 154 149 154 162 159 154 158 164 178 184 177 168 165 169 171 171 167 161 152 149 147 150 155 168
165 192 242 256 147 173 219 255 275 232 173 163 167 153 145 146 149 146 140 141 146 146 151 155 155 154 160 175 182 167 156 157 163 167 170 162 154 157 151 147 147 154 150 159
186 212 239 229 212 223 191 202 234 195 186 145 133 128 127 131 132 141 146 147 146 142 139 143 154 157 163 176 164 152 151 158 161 162 165 158 157 157 149 151 155 164 161 174
205 262 266 272 280 316 207 207 227 175 151 137 131 129 124 129 129 129 134 142 139 134 136 144 154 155 161 158 152 150 155 161 160 156 151 149 152 156 156 162 166 168 171 182
212 274 329 315 275 223 8 39 79 71 111 130 125 121 127 135 135 132 125 129 134 140 144 150 150 147 150 151 148 150 156 159 155 150 149 143 140 150 163 175 178 175 184 181
208 222 207 250 256 225 139 180 155 129 98 103 124 125 121 130 132 128 125 125 128 134 139 144 142 142 146 148 150 151 151 153 154 151 150 145 136 106 65 97 142 166 171 170
206 237 235 242 255 245 196 193 161 142 140 129 116 120 123 124 125 125 126 131 139 142 141 140 138 139 145 148 148 151 153 154 151 152 149 148 149 146 132 60 64 92 137 160
202 175 239 253 242 241 170 135 114 111 123 128 123 118 120 118 120 126 136 142 140 136 136 136 134 138 145 143 140 142 145 148 147 151 151 150 152 151 150 148 136 61 31 89
236 209 209 213 202 141 126 119 110 110 116 113 117 123 127 129 130 133 135 133 127 124 129 132 131 136 137 135 134 136 136 140 140 137 138 139 139 137 137 140 136 129 89 47
213 135 153 153 157 153 134 129 129 137 136 130 127 131 133 131 125 119 123 134 132 136 142 138 138 146 140 133 129 128 131 134 132 132 131 131 133 135 136 136 134 134 144 159
166 178 172 171 174 171 161 155 150 149 143 138 139 131 121 113 108 110 118 127 130 131 133 135 137 135 132 132 130 128 127 131 126 122 128 134 136 141 144 141 143 147 164 147
196 192 186 181 175 169 167 154 146 141 142 140 133 128 129 132 134 136 130 115 102 87 82 109 124 122 120 123 123 125 125 123 123 124 123 125 130 132 132 135 142 141 130 113
195 173 167 170 167 161 158 150 143 138 137 134 132 132 132 128 128 127 120 114 114 110 94 104 115 113 114 117 116 118 122 122 119 118 119 122 120 120 127 132 135 136 130 119
167 152 147 144 138 140 142 142 136 131 134 134 129 123 119 119 120 117 112 105 112 135 130 113 109 107 113 118 114 117 120 123 124 122 119 119 120 120 124 127 128 126 124 125
155 150 148 145 139 138 140 142 140 138 136 135 135 136 132 126 119 117 114 105 76 98 108 109 107 108 106 113 109 111 115 118 120 122 122 123 121 120 121 122 121 123 123 122
144 140 142 144 139 136 137 137 139 136 132 129 127 129 128 124 117 104 98 124 135 117 107 103 106 109 108 104 102 108 111 114 115 117 120 122 124 124 122 121 121 122 123 125
140 140 139 141 143 138 125 126 134 137 137 137 137 139 136 133 133 129 122 126 125 113 107 107 112 108 103 100 104 107 111 113 114 117 118 119 121 123 122 119 117 116 117 114
130 137 136 134 127 123 124 129 129 127 125 122 123 129 129 121 100 90 120 126 119 110 105 112 112 108 102 99 103 105 108 111 112 113 111 109 109 110 112 113 111 108 107 103
123 127 125 128 131 132 129 123 115 115 114 109 106 104 105 115 124 124 116 117 116 108 108 113 110 106 100 101 102 103 104 106 111 111 107 107 108 108 107 107 108 106 101 97
124 132 136 136 137 135 133 129 128 131 126 120 112 109 108 108 113 114 111 113 115 111 107 106 106 102 100 99 99 100 100 102 98 97 104 104 104 105 105 103 100 102 101 97
102 109 110 102 102 116 123 127 131 134 136 134 130 127 126 124 121 118 116 115 113 109 106 103 103 103 102 101 99 97 97 97 98 99 101 101 103 104 103 102 99 97 95 91